Location: Unspecified
(0.0000°N, 0.0000°E)
Time: 03:12:53
(UTC+00:00)

ISS - Pass Details

Date: 12 November 2019
Orbit: 412 x 421 km, 51.6° (Epoch: 12 November)

Event Time Altitude Azimuth Distance (km) Brightness Sun altitude
Rises 18:51:33 0° 197° (SSW) 2,346 0.6 -16.0°
Reaches altitude 10° 18:53:53 10° 183° (S) 1,483 -0.7 -16.6°
Enters shadow 18:56:23 24° 134° (SE) 897 -2.4 -17.2°
